| time (UTC) | temp C | wind direction | speed KPH | gust KPH | rain 1hr cm | rain 24hr cm | rain mn cm | humidity % | barometer mb |
| 20260505183102 | 23 | 198 | 3.2 | 12.9 | 0.00 | 0.00 | 0.00 | 53 | 1011.5 |
| 20260505182601 | 23 | 153 | 3.2 | 12.9 | 0.00 | 0.00 | 0.00 | 53 | 1011.5 |
| 20260505182059 | 23 | 223 | 6.4 | 12.9 | 0.00 | 0.00 | 0.00 | 53 | 1011.5 |
| 20260505181558 | 23 | 213 | 4.8 | 12.9 | 0.00 | 0.00 | 0.00 | 52 | 1011.9 |
| 20260505181057 | 23 | 239 | 4.8 | 16.1 | 0.00 | 0.00 | 0.00 | 52 | 1011.9 |
| 20260505180555 | 23 | 242 | 4.8 | 16.1 | 0.00 | 0.00 | 0.00 | 53 | 1011.9 |
| 20260505180052 | 23 | 142 | 3.2 | 17.7 | 0.00 | 0.00 | 0.00 | 57 | 1011.9 |
| 20260505175551 | 23 | 221 | 3.2 | 17.7 | 0.00 | 0.00 | 0.00 | 53 | 1011.9 |
| 20260505175050 | 23 | 261 | 4.8 | 16.1 | 0.00 | 0.00 | 0.00 | 54 | 1012.2 |
| 20260505174549 | 22 | 230 | 6.4 | 16.1 | 0.00 | 0.00 | 0.00 | 55 | 1012.2 |
| 20260505174017 | 22 | 225 | 8.0 | 16.1 | 0.00 | 0.00 | 0.00 | 53 | 1012.2 |
| 20260505173516 | 22 | 211 | 3.2 | 16.1 | 0.00 | 0.00 | 0.00 | 56 | 1012.5 |
| 20260505173015 | 22 | 241 | 6.4 | 14.5 | 0.00 | 0.00 | 0.00 | 55 | 1012.5 |
| 20260505172512 | 22 | 104 | 6.4 | 14.5 | 0.00 | 0.00 | 0.00 | 57 | 1012.5 |
| 20260505172010 | 22 | 212 | 3.2 | 16.1 | 0.00 | 0.00 | 0.00 | 56 | 1012.5 |
| 20260505171436 | 22 | 241 | 9.7 | 16.1 | 0.00 | 0.00 | 0.00 | 53 | 1012.5 |
| 20260505170935 | 23 | 233 | 8.0 | 14.5 | 0.00 | 0.00 | 0.00 | 55 | 1012.9 |
| 20260505170434 | 23 | 195 | 4.8 | 16.1 | 0.00 | 0.00 | 0.00 | 56 | 1013.2 |
| 20260505165933 | 23 | 238 | 8.0 | 16.1 | 0.00 | 0.00 | 0.00 | 52 | 1013.2 |
| 20260505165432 | 22 | 169 | 1.6 | 12.9 | 0.00 | 0.00 | 0.00 | 60 | 1013.2 |
| 20260505164930 | 22 | 198 | 1.6 | 12.9 | 0.00 | 0.00 | 0.00 | 58 | 1013.2 |
| 20260505164429 | 22 | 188 | 3.2 | 14.5 | 0.00 | 0.00 | 0.00 | 59 | 1013.2 |
| 20260505163856 | 22 | 99 | 4.8 | 14.5 | 0.00 | 0.00 | 0.00 | 59 | 1013.2 |
| 20260505163355 | 22 | 248 | 4.8 | 11.3 | 0.00 | 0.00 | 0.00 | 58 | 1013.2 |
| 20260505162854 | 22 | 98 | 4.8 | 11.3 | 0.00 | 0.00 | 0.00 | 57 | 1013.2 |
| 20260505162353 | 22 | 96 | 3.2 | 11.3 | 0.00 | 0.00 | 0.00 | 58 | 1013.2 |
| 20260505161852 | 22 | 71 | 4.8 | 11.3 | 0.00 | 0.00 | 0.00 | 56 | 1013.2 |
| 20260505161350 | 22 | 196 | 0.0 | 4.8 | 0.00 | 0.00 | 0.00 | 60 | 1013.2 |
| 20260505160849 | 22 | 203 | 1.6 | 4.8 | 0.00 | 0.00 | 0.00 | 62 | 1013.2 |
| 20260505160346 | 21 | 283 | 1.6 | 4.8 | 0.00 | 0.00 | 0.00 | 61 | 1013.2 |
| 20260505153308 | 20 | 321 | 1.6 | 4.8 | 0.00 | 0.00 | 0.00 | 62 | 1013.5 |
| 20260505152807 | 20 | 296 | 1.6 | 4.8 | 0.00 | 0.00 | 0.00 | 64 | 1013.2 |
| 20260505152202 | 20 | 309 | 1.6 | 4.8 | 0.00 | 0.00 | 0.00 | 63 | 1013.2 |
| 20260505151701 | 20 | 311 | 3.2 | 4.8 | 0.00 | 0.00 | 0.00 | 63 | 1013.2 |
| 20260505151159 | 20 | 285 | 1.6 | 3.2 | 0.00 | 0.00 | 0.00 | 63 | 1013.2 |
| 20260505150658 | 20 | 276 | 1.6 | 3.2 | 0.00 | 0.00 | 0.00 | 64 | 1013.2 |
| 20260505150157 | 20 | 209 | 1.6 | 3.2 | 0.00 | 0.00 | 0.00 | 64 | 1013.2 |
| 20260505140612 | 17 | 234 | 3.2 | 8.0 | 0.00 | 0.00 | 0.00 | 65 | 1013.2 |
| 20260505140111 | 17 | 113 | 3.2 | 6.4 | 0.00 | 0.00 | 0.00 | 65 | 1013.2 |
| 20260505125019 | 13 | 137 | 0.0 | 1.6 | 0.00 | 0.00 | 0.00 | 87 | 1013.2 |
| 20260505124518 | 13 | 135 | 0.0 | 1.6 | 0.00 | 0.00 | 0.00 | 88 | 1013.2 |
| 20260505124017 | 13 | 136 | 0.0 | 1.6 | 0.00 | 0.00 | 0.00 | 89 | 1013.2 |
| 20260505123444 | 13 | 136 | 1.6 | 1.6 | 0.00 | 0.00 | 0.00 | 90 | 1013.2 |
| 20260505122943 | 12 | 135 | 1.6 | 1.6 | 0.00 | 0.00 | 0.00 | 90 | 1013.2 |
| 20260505122441 | 12 | 135 | 0.0 | 0.0 | 0.00 | 0.00 | 0.00 | 91 | 1013.2 |
| 20260505121908 | 11 | 135 | 0.0 | 0.0 | 0.00 | 0.00 | 0.00 | 92 | 1013.2 |
| 20260505121407 | 11 | 136 | 0.0 | 0.0 | 0.00 | 0.00 | 0.00 | 92 | 1013.2 |
| 20260505120906 | 11 | 135 | 0.0 | 0.0 | 0.00 | 0.00 | 0.00 | 93 | 1013.2 |
| 20260505120405 | 10 | 136 | 0.0 | 0.0 | 0.00 | 0.00 | 0.00 | 93 | 1013.2 |
| 20260505115904 | 10 | 136 | 0.0 | 0.0 | 0.00 | 0.00 | 0.00 | 94 | 1013.2 |
| 20260505115403 | 10 | 137 | 0.0 | 0.0 | 0.00 | 0.00 | 0.00 | 94 | 1013.2 |
| 20260505114902 | 10 | 135 | 0.0 | 0.0 | 0.00 | 0.00 | 0.00 | 94 | 1013.2 |
| 20260505114401 | 9 | 137 | 0.0 | 0.0 | 0.00 | 0.00 | 0.00 | 94 | 1013.2 |
| 20260505113900 | 9 | 136 | 0.0 | 0.0 | 0.00 | 0.00 | 0.00 | 94 | 1012.9 |
| 20260505113359 | 9 | 137 | 0.0 | 0.0 | 0.00 | 0.00 | 0.00 | 94 | 1012.9 |
| 20260505112857 | 8 | 136 | 0.0 | 0.0 | 0.00 | 0.00 | 0.00 | 94 | 1012.9 |
| 20260505112356 | 8 | 136 | 0.0 | 0.0 | 0.00 | 0.00 | 0.00 | 94 | 1012.9 |
| 20260505111855 | 8 | 136 | 0.0 | 0.0 | 0.00 | 0.00 | 0.00 | 94 | 1012.5 |
| 20260505111354 | 8 | 137 | 0.0 | 1.6 | 0.00 | 0.00 | 0.00 | 94 | 1012.5 |
| 20260505110851 | 8 | 137 | 0.0 | 1.6 | 0.00 | 0.00 | 0.00 | 94 | 1012.2 |
| 20260505110319 | 8 | 136 | 0.0 | 1.6 | 0.00 | 0.00 | 0.00 | 94 | 1012.2 |
| 20260505101803 | 9 | 137 | 0.0 | 1.6 | 0.00 | 0.00 | 0.00 | 93 | 1012.2 |
| 20260505101301 | 9 | 137 | 0.0 | 3.2 | 0.00 | 0.00 | 0.00 | 92 | 1012.2 |
| 20260505100800 | 9 | 137 | 1.6 | 3.2 | 0.00 | 0.00 | 0.00 | 92 | 1012.2 |
| 20260505100258 | 9 | 136 | 0.0 | 3.2 | 0.00 | 0.00 | 0.00 | 92 | 1012.2 |
| 20260505095757 | 9 | 136 | 0.0 | 3.2 | 0.00 | 0.00 | 0.00 | 92 | 1012.2 |
| 20260505095256 | 9 | 111 | 0.0 | 1.6 | 0.00 | 0.00 | 0.00 | 92 | 1012.2 |
| 20260505094755 | 9 | 111 | 0.0 | 1.6 | 0.00 | 0.00 | 0.00 | 92 | 1012.2 |
| 20260505094254 | 9 | 111 | 0.0 | 1.6 | 0.00 | 0.00 | 0.00 | 92 | 1012.2 |
| 20260505093753 | 9 | 112 | 0.0 | 1.6 | 0.00 | 0.00 | 0.00 | 92 | 1012.2 |
| 20260505093252 | 9 | 111 | 0.0 | 1.6 | 0.00 | 0.00 | 0.00 | 91 | 1011.9 |
| 20260505092752 | 10 | 112 | 0.0 | 1.6 | 0.00 | 0.00 | 0.00 | 91 | 1011.9 |
| 20260505092219 | 10 | 111 | 0.0 | 1.6 | 0.00 | 0.00 | 0.00 | 91 | 1012.2 |
| 20260505091718 | 10 | 111 | 0.0 | 1.6 | 0.00 | 0.00 | 0.00 | 91 | 1012.2 |
| 20260505091146 | 10 | 111 | 0.0 | 1.6 | 0.00 | 0.00 | 0.00 | 91 | 1011.9 |
| 20260505090643 | 10 | 111 | 0.0 | 1.6 | 0.00 | 0.00 | 0.00 | 91 | 1011.9 |
| 20260505090142 | 10 | 111 | 0.0 | 1.6 | 0.00 | 0.00 | 0.00 | 92 | 1011.9 |
| 20260505085640 | 10 | 112 | 0.0 | 1.6 | 0.00 | 0.00 | 0.00 | 91 | 1011.9 |
| 20260505085138 | 10 | 112 | 0.0 | 0.0 | 0.00 | 0.00 | 0.00 | 91 | 1011.9 |
| 20260505084637 | 10 | 112 | 0.0 | 0.0 | 0.00 | 0.00 | 0.00 | 91 | 1011.9 |
| 20260505084136 | 10 | 112 | 0.0 | 0.0 | 0.00 | 0.00 | 0.00 | 91 | 1011.5 |
| 20260505083635 | 10 | 111 | 0.0 | 0.0 | 0.00 | 0.00 | 0.00 | 90 | 1011.9 |
| 20260505083133 | 10 | 112 | 0.0 | 1.6 | 0.00 | 0.00 | 0.00 | 90 | 1011.9 |
| 20260505082632 | 10 | 112 | 0.0 | 1.6 | 0.00 | 0.00 | 0.00 | 90 | 1011.9 |
| 20260505082131 | 10 | 112 | 0.0 | 1.6 | 0.00 | 0.00 | 0.00 | 90 | 1011.9 |
| 20260505081629 | 10 | 112 | 0.0 | 1.6 | 0.00 | 0.00 | 0.00 | 90 | 1011.9 |
| 20260505081128 | 10 | 112 | 0.0 | 0.0 | 0.00 | 0.00 | 0.00 | 90 | 1011.9 |
| 20260505080627 | 10 | 112 | 0.0 | 0.0 | 0.00 | 0.00 | 0.00 | 90 | 1011.9 |
| 20260505080126 | 10 | 112 | 0.0 | 0.0 | 0.00 | 0.00 | 0.00 | 89 | 1011.9 |
| 20260505075626 | 10 | 112 | 0.0 | 1.6 | 0.00 | 0.00 | 0.00 | 89 | 1011.5 |
| 20260505075125 | 10 | 111 | 0.0 | 1.6 | 0.00 | 0.00 | 0.00 | 88 | 1011.9 |
| 20260505074623 | 10 | 111 | 0.0 | 1.6 | 0.00 | 0.00 | 0.00 | 88 | 1011.9 |
| 20260505074122 | 11 | 112 | 0.0 | 1.6 | 0.00 | 0.00 | 0.00 | 88 | 1011.9 |
| 20260505073620 | 11 | 110 | 0.0 | 1.6 | 0.00 | 0.00 | 0.00 | 87 | 1011.5 |
| 20260505073048 | 11 | 110 | 0.0 | 1.6 | 0.00 | 0.00 | 0.00 | 87 | 1011.5 |
| 20260505072546 | 11 | 110 | 0.0 | 1.6 | 0.00 | 0.00 | 0.00 | 87 | 1011.5 |
| 20260505072045 | 11 | 134 | 0.0 | 1.6 | 0.00 | 0.00 | 0.00 | 87 | 1011.5 |
| 20260505071544 | 11 | 134 | 1.6 | 1.6 | 0.00 | 0.00 | 0.00 | 87 | 1011.5 |
| 20260505071042 | 11 | 134 | 0.0 | 1.6 | 0.00 | 0.00 | 0.00 | 87 | 1011.9 |
| 20260505070541 | 11 | 134 | 1.6 | 1.6 | 0.00 | 0.00 | 0.00 | 87 | 1011.5 |
| 20260505070040 | 11 | 111 | 0.0 | 1.6 | 0.00 | 0.00 | 0.00 | 87 | 1011.5 |
| 20260505065436 | 11 | 112 | 0.0 | 1.6 | 0.00 | 0.00 | 0.00 | 86 | 1011.5 |
| 20260505064935 | 11 | 111 | 0.0 | 0.0 | 0.00 | 0.00 | 0.00 | 86 | 1011.9 |
| 20260505064432 | 11 | 111 | 0.0 | 0.0 | 0.00 | 0.00 | 0.00 | 86 | 1011.9 |
| 20260505063931 | 11 | 112 | 0.0 | 0.0 | 0.00 | 0.00 | 0.00 | 85 | 1011.9 |
| 20260505063430 | 11 | 111 | 0.0 | 0.0 | 0.00 | 0.00 | 0.00 | 84 | 1011.9 |
| 20260505062929 | 11 | 112 | 0.0 | 0.0 | 0.00 | 0.00 | 0.00 | 84 | 1011.9 |
| 20260505062427 | 12 | 112 | 0.0 | 0.0 | 0.00 | 0.00 | 0.00 | 83 | 1011.9 |
| 20260505061926 | 12 | 112 | 0.0 | 0.0 | 0.00 | 0.00 | 0.00 | 83 | 1011.9 |
| 20260505061425 | 12 | 111 | 0.0 | 0.0 | 0.00 | 0.00 | 0.00 | 82 | 1011.9 |
| 20260505060924 | 12 | 111 | 0.0 | 0.0 | 0.00 | 0.00 | 0.00 | 81 | 1011.9 |
| 20260505060422 | 12 | 112 | 0.0 | 0.0 | 0.00 | 0.00 | 0.00 | 80 | 1011.9 |
| 20260505055921 | 12 | 111 | 0.0 | 0.0 | 0.00 | 0.00 | 0.00 | 79 | 1011.9 |
| 20260505055420 | 13 | 112 | 0.0 | 0.0 | 0.00 | 0.00 | 0.00 | 78 | 1011.9 |
| 20260505054918 | 13 | 111 | 0.0 | 0.0 | 0.00 | 0.00 | 0.00 | 78 | 1012.2 |
| 20260505054417 | 13 | 112 | 0.0 | 0.0 | 0.00 | 0.00 | 0.00 | 76 | 1011.9 |
| 20260505053916 | 13 | 112 | 0.0 | 1.6 | 0.00 | 0.00 | 0.00 | 76 | 1011.9 |
| 20260505053415 | 13 | 112 | 0.0 | 3.2 | 0.00 | 0.00 | 0.00 | 75 | 1011.9 |
| 20260505052913 | 14 | 112 | 0.0 | 3.2 | 0.00 | 0.00 | 0.00 | 75 | 1011.9 |
| 20260505052412 | 14 | 120 | 1.6 | 3.2 | 0.00 | 0.00 | 0.00 | 75 | 1011.9 |
| 20260505051838 | 14 | 132 | 1.6 | 3.2 | 0.00 | 0.00 | 0.00 | 75 | 1011.9 |
| 20260505051337 | 13 | 141 | 1.6 | 3.2 | 0.00 | 0.00 | 0.00 | 75 | 1011.5 |
| 20260505050836 | 13 | 152 | 1.6 | 3.2 | 0.00 | 0.00 | 0.00 | 76 | 1011.5 |
| 20260505050335 | 13 | 155 | 1.6 | 3.2 | 0.00 | 0.00 | 0.00 | 75 | 1011.5 |
| 20260505041549 | 13 | 145 | 1.6 | 3.2 | 0.00 | 0.00 | 0.00 | 75 | 1011.2 |
| 20260505041048 | 14 | 148 | 1.6 | 3.2 | 0.00 | 0.00 | 0.00 | 75 | 1011.5 |
| 20260505040546 | 14 | 148 | 1.6 | 3.2 | 0.00 | 0.00 | 0.00 | 75 | 1011.2 |
| 20260505040044 | 14 | 148 | 1.6 | 3.2 | 0.00 | 0.00 | 0.00 | 74 | 1011.5 |
| 20260505035511 | 14 | 148 | 1.6 | 3.2 | 0.00 | 0.00 | 0.00 | 74 | 1011.5 |
| 20260505035008 | 14 | 148 | 1.6 | 3.2 | 0.00 | 0.00 | 0.00 | 73 | 1011.5 |
| 20260505034506 | 14 | 148 | 1.6 | 1.6 | 0.00 | 0.00 | 0.00 | 73 | 1011.5 |
| 20260505033934 | 15 | 148 | 1.6 | 1.6 | 0.00 | 0.00 | 0.00 | 72 | 1011.5 |
| 20260505033433 | 15 | 148 | 1.6 | 1.6 | 0.00 | 0.00 | 0.00 | 72 | 1011.5 |
| 20260505032931 | 15 | 148 | 1.6 | 1.6 | 0.00 | 0.00 | 0.00 | 72 | 1011.5 |
| 20260505032430 | 15 | 148 | 0.0 | 1.6 | 0.00 | 0.00 | 0.00 | 71 | 1011.5 |
| 20260505031928 | 15 | 149 | 1.6 | 1.6 | 0.00 | 0.00 | 0.00 | 71 | 1011.5 |
| 20260505031427 | 15 | 149 | 1.6 | 1.6 | 0.00 | 0.00 | 0.00 | 70 | 1011.5 |
| 20260505030926 | 16 | 149 | 1.6 | 1.6 | 0.00 | 0.00 | 0.00 | 70 | 1011.5 |
| 20260505030425 | 16 | 150 | 0.0 | 3.2 | 0.00 | 0.00 | 0.00 | 68 | 1011.5 |
| 20260505025853 | 16 | 149 | 0.0 | 3.2 | 0.00 | 0.00 | 0.00 | 67 | 1011.5 |
| 20260505025352 | 16 | 149 | 1.6 | 3.2 | 0.00 | 0.00 | 0.00 | 65 | 1011.5 |
| 20260505024850 | 17 | 149 | 1.6 | 3.2 | 0.00 | 0.00 | 0.00 | 65 | 1011.5 |
| 20260505024349 | 17 | 138 | 1.6 | 3.2 | 0.00 | 0.00 | 0.00 | 64 | 1011.2 |
| 20260505023849 | 17 | 125 | 1.6 | 3.2 | 0.00 | 0.00 | 0.00 | 64 | 1011.5 |
| 20260505023347 | 17 | 139 | 1.6 | 4.8 | 0.00 | 0.00 | 0.00 | 65 | 1011.5 |
| 20260505022846 | 17 | 131 | 1.6 | 4.8 | 0.00 | 0.00 | 0.00 | 63 | 1011.2 |
| 20260505022344 | 17 | 140 | 1.6 | 4.8 | 0.00 | 0.00 | 0.00 | 64 | 1011.2 |
| 20260505021843 | 17 | 172 | 3.2 | 4.8 | 0.00 | 0.00 | 0.00 | 64 | 1011.2 |
| 20260505021309 | 17 | 136 | 1.6 | 4.8 | 0.00 | 0.00 | 0.00 | 65 | 1011.2 |
| 20260505020807 | 17 | 152 | 1.6 | 8.0 | 0.00 | 0.00 | 0.00 | 65 | 1011.2 |
| 20260505020306 | 17 | 134 | 1.6 | 8.0 | 0.00 | 0.00 | 0.00 | 64 | 1011.2 |
| 20260505015805 | 17 | 135 | 1.6 | 9.7 | 0.00 | 0.00 | 0.00 | 63 | 1011.2 |
| 20260505015159 | 17 | 192 | 3.2 | 9.7 | 0.00 | 0.00 | 0.00 | 63 | 1011.2 |
| 20260505014657 | 17 | 161 | 1.6 | 4.8 | 0.00 | 0.00 | 0.00 | 65 | 1011.2 |
| 20260505014156 | 18 | 137 | 1.6 | 3.2 | 0.00 | 0.00 | 0.00 | 64 | 1011.2 |
| 20260505013654 | 18 | 131 | 1.6 | 4.8 | 0.00 | 0.00 | 0.00 | 64 | 1011.2 |
| 20260505013153 | 18 | 144 | 1.6 | 4.8 | 0.00 | 0.00 | 0.00 | 63 | 1011.2 |
| 20260505012653 | 18 | 190 | 1.6 | 4.8 | 0.00 | 0.00 | 0.00 | 62 | 1011.2 |
| 20260505012121 | 18 | 179 | 1.6 | 4.8 | 0.00 | 0.00 | 0.00 | 62 | 1011.2 |
| 20260505011619 | 18 | 226 | 3.2 | 4.8 | 0.00 | 0.00 | 0.00 | 61 | 1010.8 |
| 20260505011117 | 19 | 165 | 1.6 | 4.8 | 0.00 | 0.00 | 0.00 | 62 | 1010.8 |
| 20260505010616 | 20 | 160 | 1.6 | 4.8 | 0.00 | 0.00 | 0.00 | 61 | 1010.8 |
| 20260505010114 | 20 | 146 | 1.6 | 3.2 | 0.00 | 0.00 | 0.00 | 60 | 1010.8 |
| 20260505005613 | 20 | 146 | 1.6 | 3.2 | 0.00 | 0.00 | 0.00 | 59 | 1010.8 |
| 20260505005112 | 20 | 215 | 1.6 | 3.2 | 0.00 | 0.00 | 0.00 | 58 | 1010.8 |
| 20260505004611 | 20 | 177 | 1.6 | 9.7 | 0.00 | 0.00 | 0.00 | 58 | 1010.8 |
| 20260505004110 | 21 | 176 | 1.6 | 9.7 | 0.00 | 0.00 | 0.00 | 58 | 1010.8 |
| 20260505003607 | 21 | 188 | 1.6 | 9.7 | 0.00 | 0.00 | 0.00 | 57 | 1010.5 |
| 20260505003105 | 21 | 180 | 1.6 | 9.7 | 0.00 | 0.00 | 0.00 | 56 | 1010.5 |
| 20260505002604 | 21 | 194 | 1.6 | 8.0 | 0.00 | 0.00 | 0.00 | 56 | 1010.5 |
| 20260505002103 | 21 | 227 | 4.8 | 12.9 | 0.00 | 0.00 | 0.00 | 55 | 1010.5 |
| 20260505001530 | 22 | 238 | 1.6 | 14.5 | 0.00 | 0.00 | 0.00 | 55 | 1010.5 |
| 20260505001029 | 22 | 163 | 1.6 | 14.5 | 0.00 | 0.00 | 0.00 | 53 | 1010.5 |
| 20260505000528 | 22 | 224 | 3.2 | 12.9 | 0.00 | 0.00 | 0.00 | 53 | 1010.5 |
| 20260504235955 | 22 | 310 | 1.6 | 8.0 | 0.00 | 0.00 | 0.00 | 53 | 1010.5 |
| 20260504235454 | 22 | 203 | 3.2 | 11.3 | 0.00 | 0.00 | 0.00 | 52 | 1010.5 |
| 20260504234953 | 22 | 200 | 1.6 | 11.3 | 0.00 | 0.00 | 0.00 | 52 | 1010.5 |
| 20260504234452 | 23 | 183 | 1.6 | 11.3 | 0.00 | 0.00 | 0.00 | 51 | 1010.5 |
| 20260504233951 | 23 | 197 | 3.2 | 11.3 | 0.00 | 0.00 | 0.00 | 50 | 1010.5 |
| 20260504233450 | 23 | 174 | 1.6 | 12.9 | 0.00 | 0.00 | 0.00 | 50 | 1010.5 |
| 20260504232949 | 23 | 211 | 3.2 | 14.5 | 0.00 | 0.00 | 0.00 | 50 | 1010.5 |
| 20260504232417 | 23 | 214 | 4.8 | 14.5 | 0.00 | 0.00 | 0.00 | 49 | 1010.5 |
| 20260504231916 | 23 | 188 | 3.2 | 11.3 | 0.00 | 0.00 | 0.00 | 50 | 1010.5 |
| 20260504231414 | 23 | 226 | 4.8 | 11.3 | 0.00 | 0.00 | 0.00 | 49 | 1010.5 |
| 20260504230913 | 23 | 222 | 3.2 | 11.3 | 0.00 | 0.00 | 0.00 | 50 | 1010.5 |
| 20260504230412 | 23 | 235 | 6.4 | 11.3 | 0.00 | 0.00 | 0.00 | 49 | 1010.2 |
| 20260504225840 | 23 | 230 | 3.2 | 14.5 | 0.00 | 0.00 | 0.00 | 50 | 1010.5 |
| 20260504225206 | 23 | 207 | 3.2 | 14.5 | 0.00 | 0.00 | 0.00 | 49 | 1010.5 |
| 20260504224705 | 23 | 228 | 4.8 | 16.1 | 0.00 | 0.00 | 0.00 | 49 | 1010.5 |
| 20260504224203 | 23 | 233 | 6.4 | 16.1 | 0.00 | 0.00 | 0.00 | 48 | 1010.5 |
| 20260504223702 | 23 | 226 | 3.2 | 12.9 | 0.00 | 0.00 | 0.00 | 48 | 1010.5 |
| 20260504223201 | 23 | 212 | 3.2 | 16.1 | 0.00 | 0.00 | 0.00 | 47 | 1010.5 |
| 20260504222700 | 24 | 236 | 4.8 | 16.1 | 0.00 | 0.00 | 0.00 | 47 | 1010.5 |
| 20260504222159 | 24 | 240 | 3.2 | 17.7 | 0.00 | 0.00 | 0.00 | 46 | 1010.5 |
| 20260504221657 | 24 | 252 | 3.2 | 17.7 | 0.00 | 0.00 | 0.00 | 46 | 1010.5 |
| 20260504221156 | 24 | 229 | 4.8 | 11.3 | 0.00 | 0.00 | 0.00 | 44 | 1010.5 |
| 20260504220655 | 24 | 230 | 6.4 | 12.9 | 0.00 | 0.00 | 0.00 | 43 | 1010.5 |
| 20260504220154 | 24 | 230 | 6.4 | 12.9 | 0.00 | 0.00 | 0.00 | 43 | 1010.5 |
| 20260504215551 | 25 | 208 | 4.8 | 14.5 | 0.00 | 0.00 | 0.00 | 43 | 1010.5 |
| 20260504215049 | 25 | 206 | 4.8 | 16.1 | 0.00 | 0.00 | 0.00 | 43 | 1010.5 |
| 20260504214547 | 25 | 231 | 3.2 | 16.1 | 0.00 | 0.00 | 0.00 | 44 | 1010.5 |
| 20260504214046 | 25 | 239 | 4.8 | 17.7 | 0.00 | 0.00 | 0.00 | 43 | 1010.5 |
| 20260504213544 | 25 | 230 | 6.4 | 27.4 | 0.00 | 0.00 | 0.00 | 43 | 1010.5 |
| 20260504213044 | 25 | 221 | 3.2 | 27.4 | 0.00 | 0.00 | 0.00 | 45 | 1010.5 |
| 20260504212542 | 25 | 235 | 8.0 | 27.4 | 0.00 | 0.00 | 0.00 | 42 | 1010.5 |
| 20260504212040 | 25 | 228 | 6.4 | 27.4 | 0.00 | 0.00 | 0.00 | 45 | 1010.5 |
| 20260504211540 | 25 | 163 | 3.2 | 16.1 | 0.00 | 0.00 | 0.00 | 43 | 1010.5 |
| 20260504211007 | 25 | 241 | 4.8 | 16.1 | 0.00 | 0.00 | 0.00 | 43 | 1010.5 |
| 20260504210506 | 25 | 228 | 6.4 | 17.7 | 0.00 | 0.00 | 0.00 | 45 | 1010.8 |
| 20260504205933 | 25 | 228 | 8.0 | 17.7 | 0.00 | 0.00 | 0.00 | 45 | 1010.8 |
| 20260504205258 | 25 | 245 | 3.2 | 8.0 | 0.00 | 0.00 | 0.00 | 45 | 1010.8 |
| 20260504204756 | 25 | 104 | 3.2 | 14.5 | 0.00 | 0.00 | 0.00 | 46 | 1010.8 |
| 20260504204255 | 25 | 114 | 3.2 | 16.1 | 0.00 | 0.00 | 0.00 | 46 | 1010.8 |
| 20260504203754 | 25 | 92 | 3.2 | 16.1 | 0.00 | 0.00 | 0.00 | 46 | 1010.8 |
| 20260504203253 | 25 | 244 | 6.4 | 11.3 | 0.00 | 0.00 | 0.00 | 44 | 1010.8 |
| 20260504202751 | 25 | 123 | 3.2 | 11.3 | 0.00 | 0.00 | 0.00 | 49 | 1011.2 |
| 20260504202250 | 25 | 248 | 4.8 | 12.9 | 0.00 | 0.00 | 0.00 | 46 | 1011.2 |
| 20260504201749 | 25 | 247 | 8.0 | 12.9 | 0.00 | 0.00 | 0.00 | 46 | 1011.2 |
| 20260504201246 | 25 | 196 | 3.2 | 11.3 | 0.00 | 0.00 | 0.00 | 48 | 1011.2 |
| 20260504200746 | 25 | 105 | 4.8 | 11.3 | 0.00 | 0.00 | 0.00 | 48 | 1011.2 |
| 20260504200244 | 25 | 115 | 3.2 | 12.9 | 0.00 | 0.00 | 0.00 | 48 | 1011.5 |
| 20260504195743 | 25 | 200 | 1.6 | 12.9 | 0.00 | 0.00 | 0.00 | 50 | 1011.5 |
| 20260504195242 | 25 | 226 | 3.2 | 11.3 | 0.00 | 0.00 | 0.00 | 49 | 1011.5 |
| 20260504194740 | 25 | 139 | 3.2 | 12.9 | 0.00 | 0.00 | 0.00 | 48 | 1011.9 |
| 20260504194239 | 25 | 233 | 8.0 | 12.9 | 0.00 | 0.00 | 0.00 | 46 | 1011.9 |
| 20260504193738 | 25 | 150 | 3.2 | 14.5 | 0.00 | 0.00 | 0.00 | 49 | 1011.9 |
| 20260504193236 | 25 | 115 | 4.8 | 14.5 | 0.00 | 0.00 | 0.00 | 49 | 1011.9 |
| 20260504192735 | 25 | 183 | 3.2 | 9.7 | 0.00 | 0.00 | 0.00 | 50 | 1011.9 |
| 20260504192234 | 25 | 257 | 3.2 | 11.3 | 0.00 | 0.00 | 0.00 | 49 | 1012.2 |
| 20260504191733 | 25 | 232 | 4.8 | 11.3 | 0.00 | 0.00 | 0.00 | 49 | 1012.2 |
| 20260504191231 | 24 | 221 | 3.2 | 11.3 | 0.00 | 0.00 | 0.00 | 49 | 1012.2 |
| 20260504190656 | 24 | 240 | 4.8 | 11.3 | 0.00 | 0.00 | 0.00 | 49 | 1012.2 |
| 20260504190154 | 24 | 224 | 3.2 | 12.9 | 0.00 | 0.00 | 0.00 | 48 | 1012.5 |
| 20260504185653 | 24 | 219 | 4.8 | 12.9 | 0.00 | 0.00 | 0.00 | 49 | 1012.5 |
| 20260504185152 | 24 | 220 | 6.4 | 12.9 | 0.00 | 0.00 | 0.00 | 50 | 1012.5 |
| 20260504184649 | 24 | 270 | 3.2 | 14.5 | 0.00 | 0.00 | 0.00 | 49 | 1012.5 |
| 20260504184149 | 25 | 88 | 6.4 | 14.5 | 0.00 | 0.00 | 0.00 | 47 | 1012.5 |
| 20260504183648 | 25 | 336 | 3.2 | 14.5 | 0.00 | 0.00 | 0.00 | 48 | 1012.5 |